[[{"header":{"parameterUnit":"m.s-1","parameterCategory":2,"la1":30.2991,"la2":30.254,"lo1":-89.0895,"lo2":-89.0444,"dy":0.0017,"dx":0.0017,"nx":28,"ny":28,"refTime":"2024-05-12T03:00:00:Z","depth":"0","parameterNumber":2,"parameterNumberName":"U-component_of_CURRENTS"},"data":[0,0,0,0,0,0,0,0,0,0,0,0,0,0,0,0,0,0,0,0,0,0,0,0,0,0,0,0,0,0,0,0,0,0,0,0,0,0,0,0,0,0,0,0,0,0,0,0,0,0,0,0,0,0,0,0,0,0,-0.3374,-0.3375,0,-0.3473,-0.3474,-0.3475,-0.3442,-0.344,-0.3438,-0.3436,-0.3441,-0.3443,-0.3445,0,0,0,0,0,0,0,0,0,0,0,0,0,-0.3203,-0.3206,-0.3374,-0.3375,-0.3376,-0.3473,-0.3474,-0.3475,-0.3443,-0.344,-0.3438,-0.3435,-0.344,-0.3443,-0.3445,0,0,0,0,0,0,0,0,0,0,0,0,0,-0.3285,-0.3207,-0.3373,-0.3373,-0.3374,-0.3473,-0.3474,-0.3476,-0.3443,-0.344,-0.3437,-0.3434,-0.344,-0.3442,-0.3445,-0.3522,0,0,-0.3454,-0.3456,0,0,0,0,0,0,0,0,-0.3281,-0.3291,-0.3372,-0.3373,-0.3375,-0.3444,-0.3416,-0.3487,-0.3444,-0.3415,-0.3436,-0.3433,-0.3437,-0.344,-0.3463,-0.3523,-0.3523,-0.3455,-0.3456,-0.3458,-0.3458,0,0,0,0,0,0,0,-0.3275,-0.3287,-0.3411,-0.3374,-0.3376,-0.3385,-0.3393,-0.343,-0.3438,-0.3417,-0.3415,-0.3431,-0.3436,-0.3461,-0.3463,-0.3523,-0.3454,-0.3457,-0.3459,-0.346,-0.3584,-0.3586,0,0,0,0,0,0,-0.3268,-0.3282,-0.3408,-0.3414,-0.3322,-0.339,-0.3399,-0.3423,-0.3439,-0.344,-0.3433,-0.3429,-0.3457,-0.346,-0.3463,-0.3491,-0.3458,-0.346,-0.3462,-0.3583,-0.3585,-0.3586,0,0,0,0,0,0,-0.3265,-0.3279,-0.3404,-0.3351,-0.3367,-0.3396,-0.3424,-0.3427,-0.344,-0.3453,-0.3451,-0.3441,-0.3455,-0.3459,-0.3492,-0.3493,-0.3462,-0.3464,-0.3581,-0.3583,-0.3585,-0.3589,0,0,0,0,0,0,-0.3259,-0.3277,-0.3289,-0.3351,-0.337,-0.3448,-0.3427,-0.3431,-0.3455,-0.345,-0.346,-0.3458,-0.3453,-0.3488,-0.3495,-0.3497,-0.3467,-0.3579,-0.3582,-0.3585,-0.3587,-0.3591,-0.3595,0,0,0,0,0,-0.3253,-0.3277,-0.3289,-0.3304,-0.3387,-0.3449,-0.346,-0.3468,-0.3458,-0.3468,-0.348,-0.3457,-0.351,-0.3493,-0.35,-0.3502,-0.3577,-0.3581,-0.3584,-0.3585,-0.359,-0.3594,0,0,0,0,0,0,-0.3204,-0.3279,-0.3292,-0.3336,-0.3384,-0.3443,-0.3457,-0.3475,-0.3499,-0.3488,-0.3491,-0.3492,-0.3516,-0.3526,-0.3506,-0.3549,-0.3536,-0.3541,-0.3534,-0.3539,-0.3542,-0.3538,-0.3469,0,0,0,0,0,-0.3205,-0.3239,-0.3311,-0.3341,-0.3368,-0.3417,-0.3443,-0.3457,-0.3491,-0.3498,-0.351,-0.3524,-0.3546,-0.3552,-0.3573,-0.3612,-0.3598,-0.3617,-0.362,-0.3623,-0.3628,-0.3615,-0.3617,-0.3598,-0.3598,-0.3597,0,0,-0.3192,-0.3239,-0.3256,-0.3333,-0.3369,-0.3423,-0.3423,-0.3465,-0.3501,-0.3498,-0.3535,-0.3543,-0.3562,-0.3591,-0.3602,-0.3592,-0.3623,-0.3628,-0.363,-0.3633,-0.3618,-0.362,-0.3621,-0.36,-0.3599,-0.3599,0,0,-0.3196,-0.323,-0.3266,-0.3315,-0.338,-0.3418,-0.3431,-0.3497,-0.3507,-0.3563,-0.3558,-0.3571,-0.3619,-0.3621,-0.3632,-0.368,-0.3646,-0.3682,-0.3695,-0.3682,-0.3682,-0.3683,-0.3661,-0.366,-0.368,-0.368,-0.3681,0,-0.3176,-0.3237,-0.3283,-0.3339,-0.3376,-0.3417,-0.3466,-0.3504,-0.3567,-0.3579,-0.3568,-0.3624,-0.3632,-0.3661,-0.3671,-0.3685,-0.3669,-0.3669,-0.3683,-0.3683,-0.3684,-0.3662,-0.366,-0.3681,-0.3681,-0.3681,-0.3681,0,-0.3222,-0.3267,-0.3291,-0.3374,-0.3422,-0.3465,-0.3532,-0.3564,-0.3583,-0.3613,-0.3642,-0.3659,-0.368,-0.3686,-0.3696,-0.3707,-0.3692,-0.3687,-0.3661,-0.3685,-0.3661,-0.3659,-0.3682,-0.3682,-0.3682,-0.3681,0,0,-0.3172,-0.3298,-0.3301,-0.334,-0.3441,-0.3479,-0.3544,-0.3604,-0.363,-0.3665,-0.369,-0.3722,-0.3711,-0.3724,-0.3725,-0.3719,-0.3705,-0.3705,-0.3704,-0.3667,-0.3666,-0.3607,-0.3598,-0.3694,-0.3694,-0.3694,-0.3645,0,-0.3184,-0.3276,-0.3343,-0.3414,-0.3463,-0.3527,-0.3584,-0.3641,-0.3674,-0.3708,-0.3713,-0.3737,-0.3732,-0.3731,-0.3727,-0.3721,-0.3702,-0.3719,-0.3665,-0.3663,-0.3593,-0.3595,-0.3491,-0.3434,-0.3643,-0.3642,-0.3642,0,-0.3197,-0.3257,-0.3331,-0.343,-0.3456,-0.3506,-0.3578,-0.3633,-0.3695,-0.372,-0.3737,-0.3749,-0.376,-0.3744,-0.3724,-0.3732,-0.37,-0.3684,-0.3682,-0.3624,-0.36,-0.3449,-0.3423,-0.3389,-0.3639,-0.3639,-0.3639,0,-0.3119,-0.3238,-0.3284,-0.3323,-0.345,-0.348,-0.3536,-0.3618,-0.3657,-0.3709,-0.3738,-0.3752,-0.3756,-0.3729,-0.371,-0.3711,-0.3676,-0.367,-0.3581,-0.3576,-0.3477,-0.3464,-0.3396,-0.3636,-0.3636,-0.3636,-0.3637,0,-0.3095,-0.3127,-0.3247,-0.3272,-0.3317,-0.3425,-0.3471,-0.353,-0.3617,-0.3655,-0.3717,-0.374,-0.3752,-0.3745,-0.371,-0.3639,-0.3669,-0.358,-0.3558,-0.3477,-0.3464,-0.3422,-0.3461,-0.3635,-0.3635,-0.3635,-0.3636,0,-0.2993,-0.308,-0.3131,-0.3249,-0.3279,-0.3301,-0.3423,-0.3464,-0.3558,-0.361,-0.3627,-0.3722,-0.3715,-0.3716,-0.3678,-0.3631,-0.3515,-0.3536,-0.3438,-0.3406,-0.3282,-0.3326,-0.3239,-0.3138,-0.3423,-0.3421,-0.3419,0,-0.295,-0.2965,-0.307,-0.3098,-0.3144,-0.3208,-0.3259,-0.3391,-0.3444,-0.3586,-0.3599,-0.3649,-0.3663,-0.3609,-0.3532,-0.3451,-0.3435,-0.3308,-0.3291,-0.3255,-0.329,-0.3291,-0.3212,-0.316,-0.3157,-0.3154,-0.3152,0,-0.2846,-0.2878,-0.2924,-0.2969,-0.3019,-0.3073,-0.3158,-0.3205,-0.3359,-0.3425,-0.3504,-0.3535,-0.3536,-0.3437,-0.3357,-0.3282,-0.3233,-0.3245,-0.3229,-0.3098,-0.3074,-0.2972,-0.322,-0.3126,-0.3129,-0.3131,-0.3132,-0.3133,-0.2745,-0.2744,-0.2793,-0.282,-0.2876,-0.29,-0.2896,-0.3022,-0.3075,-0.316,-0.3312,-0.3348,-0.3347,-0.3226,-0.3154,-0.3001,-0.3038,-0.2915,-0.2976,-0.2982,-0.2871,-0.3063,-0.2936,-0.2938,-0.2939,-0.294,-0.2941,0,-0.2605,-0.262,-0.2645,-0.2671,-0.2656,-0.2726,-0.2792,-0.277,-0.2783,-0.2949,-0.3012,-0.3102,-0.302,-0.3021,-0.2916,-0.2784,-0.2682,-0.2704,-0.2686,-0.2617,-0.2789,-0.2762,-0.2566,-0.2566,-0.2566,-0.2566,-0.2566,-0.2566,-0.2534,-0.2496,-0.2504,-0.2418,-0.2434,-0.2343,-0.2334,-0.2338,-0.2413,-0.2493,-0.2626,-0.2812,-0.2833,-0.3027,-0.2867,-0.2716,-0.2613,-0.2534,-0.2527,-0.2683,-0.2707,-0.273,-0.2709,-0.2506,-0.2506,-0.2236,-0.2235,-0.2234]},{"header":{"parameterUnit":"m.s-1","parameterCategory":2,"la1":30.2991,"la2":30.254,"lo1":-89.0895,"lo2":-89.0444,"dy":0.0017,"dx":0.0017,"nx":28,"ny":28,"refTime":"2024-05-12T03:00:00:Z","depth":"0","parameterNumber":3,"parameterNumberName":"V-component_of_CURRENTS"},"data":[0,0,0,0,0,0,0,0,0,0,0,0,0,0,0,0,0,0,0,0,0,0,0,0,0,0,0,0,0,0,0,0,0,0,0,0,0,0,0,0,0,0,0,0,0,0,0,0,0,0,0,0,0,0,0,0,0,0,-0.0347,-0.0346,0,-0.0229,-0.0227,-0.0226,-0.013,-0.0129,-0.0128,-0.0127,0.0074,0.0078,0.0083,0,0,0,0,0,0,0,0,0,0,0,0,0,-0.0408,-0.0407,-0.0347,-0.0346,-0.0344,-0.0229,-0.0227,-0.0225,-0.013,-0.0129,-0.0128,-0.0127,0.0072,0.0078,0.0083,0,0,0,0,0,0,0,0,0,0,0,0,0,-0.0343,-0.0407,-0.0347,-0.0284,-0.0278,-0.0229,-0.0227,-0.0225,-0.013,-0.0129,-0.0128,-0.0126,0.0071,0.0077,0.0084,0.0103,0,0,0.0105,0.0108,0,0,0,0,0,0,0,0,-0.0347,-0.0341,-0.0295,-0.0289,-0.0281,-0.0195,-0.0175,-0.0112,-0.013,-0.0184,-0.0127,-0.0126,-0.0011,0.0003,0.0025,0.0112,0.0121,0.0106,0.011,0.0113,0.0115,0,0,0,0,0,0,0,-0.0351,-0.0345,-0.0298,-0.0294,-0.0285,-0.0234,-0.0224,-0.0162,-0.0102,-0.0179,-0.0172,-0.0163,-0.0006,0.0018,0.003,0.0124,0.0106,0.0112,0.0116,0.0119,0.0269,0.0268,0,0,0,0,0,0,-0.0376,-0.035,-0.0302,-0.0295,-0.0314,-0.0235,-0.0223,-0.0222,-0.0104,-0.0086,-0.0164,-0.0159,0.0005,0.0022,0.0038,0.0082,0.0113,0.0119,0.0123,0.0269,0.0269,0.0268,0,0,0,0,0,0,-0.0378,-0.0374,-0.0306,-0.032,-0.0308,-0.0236,-0.0234,-0.022,-0.0196,-0.0094,-0.0074,-0.0155,0.0007,0.0028,0.0095,0.009,0.0123,0.0129,0.0269,0.0269,0.0268,0.0161,0,0,0,0,0,0,-0.0381,-0.0375,-0.0384,-0.0323,-0.0309,-0.0289,-0.0235,-0.0219,-0.0193,-0.0185,-0.008,-0.006,0.0009,0.0084,0.0102,0.01,0.0134,0.0269,0.0269,0.0269,0.0164,0.0157,0.015,0,0,0,0,0,-0.0383,-0.0404,-0.0385,-0.0379,-0.0323,-0.029,-0.0278,-0.022,-0.0194,-0.0192,-0.0114,-0.0063,0.0095,0.0089,0.011,0.011,0.0269,0.0269,0.0269,0.0168,0.0158,0.015,0,0,0,0,0,0,-0.0434,-0.0394,-0.0373,-0.038,-0.0343,-0.0274,-0.0269,-0.0231,-0.017,-0.0161,-0.0062,-0.0037,0.0016,0.0077,0.0069,0.0153,0.0189,0.0193,0.0105,0.0097,0.009,0.0076,0.014,0,0,0,0,0,-0.0453,-0.0457,-0.0407,-0.0414,-0.0401,-0.0339,-0.0319,-0.0282,-0.0221,-0.0194,-0.0119,-0.0039,0.0029,0.0073,0.0137,0.0186,0.025,0.0199,0.0192,0.0186,0.0189,0.0275,0.0275,0.0267,0.0267,0.0267,0,0,-0.0473,-0.0454,-0.0455,-0.0425,-0.0391,-0.0384,-0.0323,-0.0305,-0.0288,-0.0181,-0.0137,-0.0066,0.0034,0.0087,0.0117,0.0141,0.0219,0.0185,0.0179,0.0186,0.0274,0.0275,0.0276,0.0267,0.0267,0.0267,0,0,-0.0526,-0.0503,-0.0527,-0.0501,-0.0466,-0.0425,-0.0427,-0.0366,-0.0328,-0.0282,-0.02,-0.0131,-0.0033,0.0044,0.0096,0.0089,0.017,0.0103,0.0068,0.015,0.0152,0.0154,0.0222,0.0231,0.0108,0.0108,0.0108,0,-0.0554,-0.0575,-0.0527,-0.054,-0.0525,-0.0452,-0.0467,-0.042,-0.0343,-0.0308,-0.0283,-0.0126,-0.005,0.0039,0.0036,0.0073,0.0128,0.0089,0.014,0.0144,0.0148,0.0217,0.0229,0.0103,0.0104,0.0104,0.0105,0,-0.0619,-0.0632,-0.0644,-0.0633,-0.0609,-0.0612,-0.0543,-0.0512,-0.0461,-0.0401,-0.0316,-0.0207,-0.0107,-0.0078,-0.002,0.0048,0.0078,0.0111,0.0157,0.0142,0.0216,0.023,0.0096,0.0097,0.0099,0.01,0,0,-0.069,-0.0693,-0.0695,-0.071,-0.066,-0.0651,-0.0618,-0.0563,-0.0534,-0.0448,-0.0395,-0.0277,-0.0209,-0.0147,-0.0061,0.0015,0.0082,0.0066,0.0073,0.0124,0.0256,0.0313,0.0334,0.0122,0.0124,0.0125,0.0291,0,-0.0756,-0.0809,-0.0781,-0.0817,-0.0833,-0.0757,-0.0728,-0.066,-0.0585,-0.0515,-0.0384,-0.0306,-0.0235,-0.0189,-0.0102,0.0042,0.0116,0.0034,0.0272,0.0279,0.0325,0.0352,0.0399,0.0554,0.0305,0.0307,0.0309,0,-0.0827,-0.0851,-0.0905,-0.0906,-0.0904,-0.0907,-0.0843,-0.0808,-0.0678,-0.0616,-0.0504,-0.0396,-0.0256,-0.0209,0.0032,-0.0024,0.01,0.0207,0.0217,0.0322,0.0363,0.0534,0.0589,0.0805,0.0331,0.0329,0.0328,0,-0.09,-0.0936,-0.0985,-0.0985,-0.0968,-0.097,-0.0946,-0.0839,-0.0805,-0.0674,-0.0629,-0.0446,-0.0351,-0.0167,0.0064,0.0049,0.0324,0.0336,0.0505,0.051,0.0626,0.0638,0.0914,0.0492,0.0491,0.0491,0.049,0,-0.098,-0.1019,-0.103,-0.106,-0.1107,-0.1049,-0.1056,-0.1002,-0.0904,-0.0858,-0.069,-0.0605,-0.0338,-0.0142,0.0053,0.0336,0.0325,0.0513,0.0566,0.0588,0.0594,0.0847,0.0932,0.0497,0.0496,0.0494,0.0493,0,-0.1055,-0.1063,-0.113,-0.1143,-0.1152,-0.118,-0.116,-0.115,-0.1044,-0.0977,-0.094,-0.0713,-0.0444,-0.0167,0.0152,0.0325,0.073,0.0676,0.0677,0.0728,0.107,0.1145,0.1475,0.1607,0.089,0.0892,0.0895,0,-0.11,-0.1141,-0.1206,-0.1255,-0.1276,-0.13,-0.131,-0.1234,-0.1212,-0.1033,-0.1008,-0.0741,-0.0527,-0.003,0.0331,0.0705,0.0863,0.0943,0.0927,0.1118,0.1242,0.1287,0.1376,0.1035,0.1039,0.1041,0.1043,0,-0.1184,-0.1208,-0.1266,-0.1365,-0.1418,-0.1458,-0.1465,-0.1472,-0.1352,-0.127,-0.11,-0.0909,-0.0395,0.0079,0.0571,0.0785,0.1118,0.1006,0.1225,0.1404,0.1455,0.1596,0.0881,0.1066,0.1064,0.1062,0.1061,0.106,-0.1242,-0.1309,-0.1387,-0.1478,-0.154,-0.1596,-0.1626,-0.1605,-0.1564,-0.1408,-0.119,-0.0875,-0.0142,0.0575,0.0851,0.1408,0.1335,0.1542,0.1623,0.1655,0.1778,0.1101,0.1329,0.1328,0.1327,0.1327,0.1326,0,-0.131,-0.1386,-0.1488,-0.1598,-0.168,-0.1677,-0.171,-0.1703,-0.1666,-0.1447,-0.1232,-0.0471,0.0247,0.0912,0.1748,0.2025,0.2078,0.2133,0.2223,0.2289,0.1725,0.1726,0.2025,0.2025,0.2025,0.2024,0.2024,0.2024,-0.1351,-0.1469,-0.1525,-0.1686,-0.1756,-0.1828,-0.1845,-0.1812,-0.167,-0.1311,-0.0905,-0.054,0.0437,0.1833,0.2594,0.2632,0.2868,0.2806,0.2945,0.256,0.251,0.2463,0.2487,0.2941,0.2942,0.3485,0.3491,0.3495]}],[{"header":{"parameterUnit":"m.s-1","parameterCategory":2,"la1":30.2991,"la2":30.254,"lo1":-89.0895,"lo2":-89.0444,"dy":0.0017,"dx":0.0017,"nx":28,"ny":28,"refTime":"2024-05-12T03:00:00:Z","depth":"2","parameterNumber":2,"parameterNumberName":"U-component_of_CURRENTS"},"data":[0,0,0,0,0,0,0,0,0,0,0,0,0,0,0,0,0,0,0,0,0,0,0,0,0,0,0,0,0,0,0,0,0,0,0,0,0,0,0,0,0,0,0,0,0,0,0,0,0,0,0,0,0,0,0,0,0,0,-0.3141,-0.3142,0,-0.3229,-0.323,-0.3231,-0.3204,-0.3202,-0.3201,-0.3199,-0.3208,-0.321,-0.3211,0,0,0,0,0,0,0,0,0,0,0,0,0,-0.2989,-0.2991,-0.3141,-0.3143,-0.3144,-0.3229,-0.323,-0.3231,-0.3204,-0.3202,-0.32,-0.3199,-0.3207,-0.3209,-0.3211,0,0,0,0,0,0,0,0,0,0,0,0,0,-0.3061,-0.2992,-0.3141,-0.3143,-0.3144,-0.3229,-0.323,-0.3231,-0.3205,-0.3202,-0.32,-0.3198,-0.3207,-0.3209,-0.3212,-0.3277,0,0,-0.322,-0.3221,0,0,0,0,0,0,0,0,-0.3057,-0.3067,-0.3141,-0.3143,-0.3144,-0.3205,-0.3179,-0.3243,-0.3205,-0.3179,-0.3199,-0.3196,-0.3203,-0.3206,-0.3226,-0.3277,-0.3278,-0.322,-0.3222,-0.3223,-0.3223,0,0,0,0,0,0,0,-0.3052,-0.3063,-0.3174,-0.3143,-0.3145,-0.3152,-0.3159,-0.3192,-0.3201,-0.3181,-0.318,-0.3194,-0.3202,-0.3223,-0.3225,-0.3278,-0.322,-0.3222,-0.3224,-0.3225,-0.3341,-0.3342,0,0,0,0,0,0,-0.3047,-0.3059,-0.3171,-0.3177,-0.3096,-0.3157,-0.3164,-0.3186,-0.3202,-0.3203,-0.3196,-0.3193,-0.322,-0.3222,-0.3225,-0.326,-0.3223,-0.3225,-0.3227,-0.3339,-0.3341,-0.3343,0,0,0,0,0,0,-0.3044,-0.3057,-0.3168,-0.312,-0.3135,-0.3162,-0.3187,-0.3189,-0.3205,-0.3215,-0.3213,-0.3208,-0.3218,-0.3222,-0.3255,-0.3261,-0.3226,-0.3229,-0.3337,-0.334,-0.3342,-0.3356,0,0,0,0,0,0,-0.3039,-0.3055,-0.3067,-0.3121,-0.3138,-0.3208,-0.3189,-0.3193,-0.3219,-0.3214,-0.3225,-0.3223,-0.3216,-0.3251,-0.3257,-0.3264,-0.3231,-0.3336,-0.3338,-0.3341,-0.3354,-0.3359,-0.3363,0,0,0,0,0,-0.3033,-0.3056,-0.3067,-0.3081,-0.3154,-0.3209,-0.3218,-0.3227,-0.3221,-0.3231,-0.3244,-0.3223,-0.3272,-0.3255,-0.3262,-0.3269,-0.3334,-0.3338,-0.3341,-0.3352,-0.3358,-0.3363,0,0,0,0,0,0,-0.2991,-0.3058,-0.307,-0.311,-0.3153,-0.3204,-0.3219,-0.3236,-0.326,-0.3252,-0.3254,-0.3255,-0.3282,-0.3288,-0.3269,-0.3313,-0.3296,-0.3301,-0.3302,-0.3308,-0.3312,-0.331,-0.3233,0,0,0,0,0,-0.2993,-0.3024,-0.3087,-0.3116,-0.314,-0.3185,-0.3209,-0.3223,-0.3254,-0.3261,-0.3274,-0.3289,-0.3308,-0.3315,-0.3334,-0.3371,-0.3358,-0.3379,-0.3383,-0.3387,-0.3392,-0.338,-0.3383,-0.3354,-0.3354,-0.3354,0,0,-0.2982,-0.3024,-0.304,-0.3109,-0.3142,-0.3192,-0.3191,-0.3232,-0.3266,-0.3262,-0.3302,-0.3309,-0.3324,-0.3353,-0.3365,-0.3354,-0.339,-0.3391,-0.3394,-0.3397,-0.3384,-0.3386,-0.3388,-0.3356,-0.3356,-0.3355,0,0,-0.2987,-0.3019,-0.3052,-0.3097,-0.3157,-0.3191,-0.3205,-0.3266,-0.3278,-0.3333,-0.3328,-0.3343,-0.3387,-0.3389,-0.3398,-0.3447,-0.3415,-0.3451,-0.3468,-0.3457,-0.3458,-0.3459,-0.3442,-0.3442,-0.345,-0.345,-0.345,0,-0.2971,-0.3026,-0.3067,-0.3119,-0.3154,-0.3193,-0.3239,-0.3275,-0.3335,-0.3349,-0.3341,-0.3396,-0.3403,-0.3431,-0.3443,-0.3454,-0.3441,-0.3441,-0.3459,-0.346,-0.3461,-0.3444,-0.3443,-0.3451,-0.3451,-0.345,-0.345,0,-0.3012,-0.3055,-0.3077,-0.3155,-0.3199,-0.324,-0.3303,-0.3336,-0.3359,-0.3388,-0.342,-0.3436,-0.3458,-0.3465,-0.3472,-0.3487,-0.3473,-0.3464,-0.3437,-0.3464,-0.3445,-0.3444,-0.3452,-0.3452,-0.3452,-0.3451,0,0,-0.2968,-0.3084,-0.3088,-0.3124,-0.3219,-0.3255,-0.3319,-0.3377,-0.3406,-0.3443,-0.3472,-0.3503,-0.3497,-0.3508,-0.3509,-0.3505,-0.35,-0.3491,-0.3489,-0.3459,-0.3468,-0.3404,-0.3396,-0.3488,-0.3488,-0.3488,-0.345,0,-0.2979,-0.3065,-0.3127,-0.3195,-0.3241,-0.3303,-0.336,-0.3416,-0.3451,-0.3488,-0.3496,-0.3522,-0.3518,-0.3521,-0.3519,-0.3512,-0.3499,-0.3511,-0.346,-0.3459,-0.3385,-0.3393,-0.314,-0.308,-0.3448,-0.3448,-0.3448,0,-0.2991,-0.3047,-0.3117,-0.3212,-0.3237,-0.3287,-0.336,-0.3413,-0.3478,-0.3505,-0.3527,-0.3542,-0.3556,-0.354,-0.3525,-0.3531,-0.3503,-0.3488,-0.3486,-0.342,-0.3392,-0.3116,-0.3064,-0.3446,-0.3446,-0.3446,-0.3446,0,-0.292,-0.3031,-0.3076,-0.3113,-0.3234,-0.3267,-0.3322,-0.3404,-0.3443,-0.3501,-0.3532,-0.355,-0.3559,-0.3535,-0.3517,-0.3518,-0.3488,-0.348,-0.3392,-0.3387,-0.3159,-0.3134,-0.3454,-0.3454,-0.3454,-0.3454,-0.3454,0,-0.2897,-0.2929,-0.3043,-0.3067,-0.3113,-0.3218,-0.3267,-0.3327,-0.3414,-0.3452,-0.3518,-0.3542,-0.3558,-0.3552,-0.352,-0.3451,-0.3483,-0.3393,-0.3372,-0.3159,-0.3135,-0.3447,-0.3446,-0.3453,-0.3453,-0.3453,-0.3454,0,-0.2802,-0.2884,-0.2934,-0.3049,-0.3078,-0.3103,-0.3224,-0.3265,-0.3362,-0.3414,-0.3434,-0.3529,-0.3524,-0.3527,-0.3493,-0.3446,-0.3392,-0.3355,-0.3108,-0.3058,-0.3297,-0.3298,-0.325,-0.3248,-0.3245,-0.3244,-0.3242,0,-0.2762,-0.2777,-0.2878,-0.2906,-0.2953,-0.3019,-0.3069,-0.3199,-0.325,-0.3391,-0.3404,-0.3457,-0.3467,-0.3416,-0.3322,-0.324,-0.3328,-0.2973,-0.2933,-0.3292,-0.3276,-0.3281,-0.3285,-0.2631,-0.2625,-0.262,-0.2615,0,-0.2664,-0.2697,-0.2741,-0.2785,-0.2837,-0.2889,-0.2973,-0.3015,-0.3165,-0.3229,-0.3304,-0.3332,-0.3317,-0.313,-0.3045,-0.2958,-0.297,-0.2866,-0.3275,-0.2741,-0.271,-0.2695,-0.2718,-0.2569,-0.2573,-0.2577,-0.2579,-0.2581,-0.2571,-0.2571,-0.2617,-0.2645,-0.27,-0.2722,-0.2717,-0.2831,-0.2877,-0.2926,-0.3084,-0.3042,-0.3018,-0.2765,-0.263,-0.2515,-0.2712,-0.2582,-0.2597,-0.2618,-0.2572,-0.254,-0.2358,-0.2361,-0.2364,-0.2366,-0.2369,0,-0.2435,-0.2452,-0.2477,-0.2502,-0.2485,-0.2559,-0.2616,-0.2572,-0.2569,-0.2657,-0.2692,-0.2448,-0.2348,-0.2333,-0.2094,-0.2058,-0.2015,-0.1968,-0.1906,-0.1954,-0.1996,-0.1918,-0.153,-0.1528,-0.1525,-0.1523,0,0,-0.2367,-0.2329,-0.2336,-0.2251,-0.2271,-0.2176,-0.2164,-0.2125,-0.2135,-0.2061,-0.2046,-0.2228,-0.2285,-0.1909,-0.1813,-0.1642,-0.1777,-0.156,-0.2231,-0.2206,-0.2245,-0.2348,-0.2281,0,0,0,0,0]},{"header":{"parameterUnit":"m.s-1","parameterCategory":2,"la1":30.2991,"la2":30.254,"lo1":-89.0895,"lo2":-89.0444,"dy":0.0017,"dx":0.0017,"nx":28,"ny":28,"refTime":"2024-05-12T03:00:00:Z","depth":"2","parameterNumber":3,"parameterNumberName":"V-component_of_CURRENTS"},"data":[0,0,0,0,0,0,0,0,0,0,0,0,0,0,0,0,0,0,0,0,0,0,0,0,0,0,0,0,0,0,0,0,0,0,0,0,0,0,0,0,0,0,0,0,0,0,0,0,0,0,0,0,0,0,0,0,0,0,-0.0319,-0.0318,0,-0.0208,-0.0206,-0.0205,-0.0114,-0.0113,-0.0112,-0.0112,0.0081,0.0086,0.009,0,0,0,0,0,0,0,0,0,0,0,0,0,-0.0376,-0.0376,-0.032,-0.0318,-0.0317,-0.0208,-0.0206,-0.0204,-0.0114,-0.0113,-0.0112,-0.0111,0.008,0.0085,0.0091,0,0,0,0,0,0,0,0,0,0,0,0,0,-0.0315,-0.0376,-0.032,-0.026,-0.0254,-0.0208,-0.0206,-0.0204,-0.0114,-0.0113,-0.0112,-0.0111,0.0078,0.0085,0.0091,0.011,0,0,0.0112,0.0115,0,0,0,0,0,0,0,0,-0.0319,-0.0313,-0.027,-0.0264,-0.0257,-0.0175,-0.0155,-0.0096,-0.0114,-0.0165,-0.0112,-0.011,0.0001,0.0014,0.0034,0.0119,0.0127,0.0112,0.0116,0.0119,0.0121,0,0,0,0,0,0,0,-0.0323,-0.0316,-0.0273,-0.0269,-0.0261,-0.0212,-0.0203,-0.0143,-0.0087,-0.0161,-0.0154,-0.0145,0.0006,0.0028,0.004,0.013,0.0112,0.0118,0.0122,0.0125,0.027,0.027,0,0,0,0,0,0,-0.0346,-0.0321,-0.0277,-0.027,-0.0288,-0.0213,-0.0202,-0.0201,-0.0089,-0.0072,-0.0146,-0.0142,0.0016,0.0032,0.0047,0.009,0.0119,0.0125,0.0129,0.027,0.027,0.027,0,0,0,0,0,0,-0.0348,-0.0344,-0.0281,-0.0294,-0.0283,-0.0214,-0.0213,-0.0199,-0.0177,-0.0079,-0.006,-0.0138,0.0017,0.0038,0.0102,0.0098,0.0128,0.0134,0.0271,0.027,0.027,0.0168,0,0,0,0,0,0,-0.035,-0.0345,-0.0354,-0.0296,-0.0283,-0.0264,-0.0214,-0.0198,-0.0174,-0.0167,-0.0066,-0.0047,0.002,0.0091,0.0109,0.0108,0.014,0.0271,0.0271,0.027,0.0171,0.0164,0.0158,0,0,0,0,0,-0.0353,-0.0373,-0.0356,-0.035,-0.0297,-0.0265,-0.0254,-0.0199,-0.0175,-0.0173,-0.0099,-0.005,0.0102,0.0097,0.0117,0.0118,0.0271,0.0271,0.027,0.0174,0.0166,0.0158,0,0,0,0,0,0,-0.0402,-0.0364,-0.0344,-0.0351,-0.0316,-0.0251,-0.0247,-0.0211,-0.0152,-0.0144,-0.0049,-0.0025,0.0027,0.0086,0.0077,0.0159,0.0194,0.0197,0.0114,0.0106,0.01,0.0086,0.0145,0,0,0,0,0,-0.042,-0.0425,-0.0377,-0.0384,-0.0372,-0.0313,-0.0294,-0.0259,-0.0201,-0.0175,-0.0104,-0.0026,0.004,0.0082,0.0144,0.0192,0.0252,0.0205,0.0199,0.0192,0.0195,0.0279,0.028,0.0269,0.0269,0.0269,0,0,-0.044,-0.0421,-0.0423,-0.0395,-0.0363,-0.0356,-0.0298,-0.0281,-0.0265,-0.0163,-0.012,-0.0052,0.0045,0.0097,0.0126,0.0148,0.0225,0.0192,0.0186,0.0192,0.0278,0.028,0.0281,0.0269,0.0269,0.0269,0,0,-0.0491,-0.0469,-0.0493,-0.0468,-0.0435,-0.0396,-0.0398,-0.034,-0.0304,-0.0259,-0.0181,-0.0113,-0.0019,0.0057,0.0107,0.0102,0.0179,0.0115,0.0082,0.0162,0.0164,0.0166,0.023,0.0238,0.0121,0.0121,0.012,0,-0.0519,-0.0539,-0.0494,-0.0506,-0.0491,-0.0422,-0.0436,-0.0391,-0.0317,-0.0284,-0.0261,-0.0108,-0.0034,0.0053,0.0051,0.0087,0.0138,0.0101,0.0153,0.0156,0.016,0.0226,0.0236,0.0116,0.0116,0.0117,0.0117,0,-0.0581,-0.0594,-0.0606,-0.0596,-0.0573,-0.0576,-0.051,-0.0481,-0.0432,-0.0373,-0.0291,-0.0184,-0.0088,-0.0058,-0.0002,0.0065,0.0092,0.0124,0.0168,0.0155,0.0225,0.0238,0.0109,0.011,0.0112,0.0113,0,0,-0.0651,-0.0654,-0.0656,-0.0671,-0.0622,-0.0615,-0.0582,-0.0529,-0.0503,-0.0419,-0.0367,-0.025,-0.0185,-0.0124,-0.004,0.0034,0.0099,0.0082,0.0089,0.0136,0.0266,0.0314,0.0334,0.0138,0.014,0.0141,0.0297,0,-0.0716,-0.0766,-0.074,-0.0775,-0.0791,-0.0717,-0.0689,-0.0624,-0.0552,-0.0484,-0.0355,-0.028,-0.021,-0.0165,-0.008,0.006,0.0131,0.0053,0.0281,0.0287,0.0325,0.0351,0.0283,0.0419,0.0311,0.0313,0.0315,0,-0.0785,-0.0808,-0.086,-0.0861,-0.086,-0.0863,-0.0802,-0.0768,-0.0642,-0.0583,-0.0474,-0.0369,-0.0232,-0.0185,0.0049,-0.0006,0.0115,0.0219,0.0228,0.0322,0.0362,0.042,0.0449,0.0338,0.0336,0.0334,0.0333,0,-0.0856,-0.0891,-0.0939,-0.0938,-0.0922,-0.0925,-0.0903,-0.08,-0.0767,-0.0641,-0.0598,-0.0419,-0.0327,-0.0147,0.0075,0.0062,0.0327,0.0341,0.0499,0.0503,0.0518,0.052,0.0493,0.0493,0.0492,0.0492,0.0491,0,-0.0934,-0.0972,-0.0983,-0.1013,-0.1058,-0.1003,-0.1011,-0.0959,-0.0865,-0.0821,-0.0658,-0.0577,-0.0315,-0.0125,0.0064,0.0334,0.0327,0.0505,0.0556,0.0479,0.0476,0.0464,0.0458,0.0498,0.0496,0.0495,0.0494,0,-0.1006,-0.1014,-0.108,-0.1094,-0.1103,-0.1131,-0.1113,-0.1104,-0.1003,-0.0939,-0.0903,-0.0685,-0.0428,-0.0156,0.0154,0.032,0.0569,0.0658,0.0544,0.058,0.0688,0.0675,0.0851,0.0854,0.0857,0.0859,0.0861,0,-0.1051,-0.1091,-0.1155,-0.1203,-0.1224,-0.1249,-0.126,-0.1186,-0.1166,-0.0996,-0.0973,-0.0717,-0.0513,-0.0036,0.0297,0.0654,0.0651,0.0786,0.0758,0.0697,0.0729,0.0712,0.0696,0.0728,0.0729,0.073,0.073,0,-0.1133,-0.1157,-0.1213,-0.131,-0.1363,-0.1402,-0.141,-0.1418,-0.1302,-0.1226,-0.1066,-0.0886,-0.0408,-0.0014,0.0452,0.064,0.0727,0.081,0.0801,0.0646,0.0595,0.0622,0.0608,0.0735,0.0735,0.0734,0.0734,0.0734,-0.1189,-0.1254,-0.133,-0.142,-0.1482,-0.1537,-0.1567,-0.1544,-0.1506,-0.1354,-0.1156,-0.0864,-0.0444,0.02,0.0546,0.084,0.0831,0.0892,0.0885,0.0879,0.0835,0.0791,0.0959,0.096,0.0961,0.0961,0.0962,0,-0.1255,-0.1329,-0.1429,-0.1536,-0.1615,-0.1617,-0.1648,-0.1631,-0.1592,-0.1394,-0.1191,-0.0751,-0.0276,0.0151,0.0635,0.0942,0.0897,0.0971,0.0857,0.085,0.0844,0.0794,0.091,0.0911,0.0912,0.0913,0,0,-0.1295,-0.1408,-0.1462,-0.1617,-0.1688,-0.1756,-0.1774,-0.172,-0.1585,-0.1398,-0.1179,-0.0819,-0.0285,0.0051,0.0442,0.0698,0.0687,0.0703,0.0708,0.052,0.0511,0.0759,0.067,0,0,0,0,0]}],[{"header":{"parameterUnit":"m.s-1","parameterCategory":2,"la1":30.2991,"la2":30.254,"lo1":-89.0895,"lo2":-89.0444,"dy":0.0017,"dx":0.0017,"nx":28,"ny":28,"refTime":"2024-05-12T03:00:00:Z","depth":"4","parameterNumber":2,"parameterNumberName":"U-component_of_CURRENTS"},"data":[0,0,0,0,0,0,0,0,0,0,0,0,0,0,0,0,0,0,0,0,0,0,0,0,0,0,0,0,0,0,0,0,0,0,0,0,0,0,0,0,0,0,0,0,0,0,0,0,0,0,0,0,0,0,0,0,0,0,-0.2093,-0.2094,0,-0.2196,-0.2197,-0.2198,-0.2246,-0.2246,-0.2246,-0.2246,-0.2337,-0.2339,-0.2341,0,0,0,0,0,0,0,0,0,0,0,0,0,-0.1949,-0.1951,-0.2092,-0.2094,-0.2095,-0.2196,-0.2197,-0.2199,-0.2246,-0.2246,-0.2246,-0.2246,-0.2336,-0.2339,-0.2341,0,0,0,0,0,0,0,0,0,0,0,0,0,-0.2026,-0.1952,-0.2092,-0.2132,-0.2137,-0.2196,-0.2197,-0.2199,-0.2246,-0.2246,-0.2246,-0.2246,-0.2335,-0.2338,-0.2342,-0.2363,0,0,-0.2353,-0.2354,0,0,0,0,0,0,0,0,-0.2022,-0.2031,-0.2125,-0.213,-0.2135,-0.2209,-0.218,-0.2254,-0.2246,-0.2203,-0.2246,-0.2246,-0.2294,-0.2301,-0.2318,-0.2367,-0.2371,-0.2353,-0.2355,-0.2357,-0.2358,0,0,0,0,0,0,0,-0.2016,-0.2027,-0.2132,-0.2126,-0.2133,-0.215,-0.216,-0.2194,-0.2245,-0.2207,-0.2211,-0.2225,-0.2296,-0.2315,-0.2321,-0.2372,-0.2353,-0.2356,-0.2358,-0.236,-0.2514,-0.2515,0,0,0,0,0,0,-0.2006,-0.2022,-0.2129,-0.2135,-0.2079,-0.2152,-0.2164,-0.2184,-0.2245,-0.2255,-0.2224,-0.2226,-0.2308,-0.2316,-0.2324,-0.2418,-0.2357,-0.236,-0.2362,-0.2512,-0.2514,-0.2516,0,0,0,0,0,0,-0.2003,-0.2015,-0.2125,-0.2082,-0.2097,-0.2155,-0.2177,-0.2186,-0.224,-0.2259,-0.2269,-0.2272,-0.2309,-0.2319,-0.2386,-0.2419,-0.2362,-0.2365,-0.2509,-0.2512,-0.2515,-0.2564,0,0,0,0,0,0,-0.1998,-0.2013,-0.2041,-0.2081,-0.2099,-0.2176,-0.2177,-0.2188,-0.2247,-0.2252,-0.2303,-0.2309,-0.231,-0.2381,-0.239,-0.2423,-0.2368,-0.2507,-0.2511,-0.2514,-0.256,-0.2568,-0.2575,0,0,0,0,0,-0.1993,-0.2021,-0.2042,-0.2056,-0.2131,-0.2177,-0.2188,-0.2227,-0.225,-0.2276,-0.2318,-0.231,-0.241,-0.2386,-0.2396,-0.2431,-0.2505,-0.251,-0.2514,-0.2556,-0.2566,-0.2575,0,0,0,0,0,0,-0.1972,-0.203,-0.2054,-0.2099,-0.2145,-0.2186,-0.2221,-0.2252,-0.2308,-0.2325,-0.2341,-0.2351,-0.2418,-0.2425,-0.2398,-0.2486,-0.2454,-0.2461,-0.2483,-0.2493,-0.25,-0.2499,-0.2371,0,0,0,0,0,-0.1981,-0.2021,-0.2072,-0.2112,-0.2139,-0.2191,-0.2224,-0.2254,-0.23,-0.2327,-0.2366,-0.2406,-0.2439,-0.2468,-0.2497,-0.2554,-0.2537,-0.2582,-0.2589,-0.2596,-0.2603,-0.2599,-0.2607,-0.2531,-0.2531,-0.253,0,0,-0.1986,-0.2023,-0.2047,-0.2112,-0.2153,-0.2203,-0.2211,-0.2271,-0.2321,-0.2328,-0.2417,-0.2439,-0.2462,-0.2519,-0.2549,-0.2533,-0.261,-0.2601,-0.2606,-0.261,-0.2605,-0.2612,-0.2618,-0.2534,-0.2533,-0.2533,0,0,-0.2002,-0.2049,-0.2087,-0.2131,-0.2202,-0.2233,-0.226,-0.2328,-0.2369,-0.2449,-0.2461,-0.2508,-0.2577,-0.2589,-0.2604,-0.2677,-0.2649,-0.2692,-0.2734,-0.2731,-0.2736,-0.2741,-0.2726,-0.2729,-0.2697,-0.2697,-0.2697,0,-0.2008,-0.2061,-0.2105,-0.2154,-0.2198,-0.2253,-0.2305,-0.2355,-0.2439,-0.2474,-0.2486,-0.2584,-0.2605,-0.2656,-0.2683,-0.2692,-0.2684,-0.2693,-0.2738,-0.2743,-0.2747,-0.273,-0.2733,-0.27,-0.27,-0.2699,-0.2699,0,-0.2045,-0.2103,-0.213,-0.2212,-0.2264,-0.2317,-0.2387,-0.245,-0.2508,-0.2549,-0.263,-0.266,-0.271,-0.2727,-0.2733,-0.2779,-0.2761,-0.2744,-0.2708,-0.2757,-0.2737,-0.2739,-0.2704,-0.2703,-0.2702,-0.2701,0,0,-0.2008,-0.2133,-0.2145,-0.2195,-0.2301,-0.2341,-0.2432,-0.2512,-0.2569,-0.2645,-0.2708,-0.2771,-0.2786,-0.2804,-0.2814,-0.2823,-0.2844,-0.2807,-0.2805,-0.278,-0.2834,-0.2659,-0.2643,-0.2835,-0.2836,-0.2837,-0.2808,0,-0.2024,-0.2115,-0.2181,-0.2276,-0.2326,-0.2412,-0.2488,-0.2571,-0.2639,-0.2712,-0.275,-0.2811,-0.2815,-0.2843,-0.2856,-0.2852,-0.2853,-0.2854,-0.2802,-0.2801,-0.2627,-0.264,-0.2839,-0.2809,-0.2809,-0.2809,-0.2809,0,-0.2028,-0.2091,-0.2185,-0.2308,-0.2341,-0.2414,-0.2533,-0.2604,-0.2709,-0.2763,-0.2824,-0.2857,-0.2904,-0.289,-0.29,-0.2903,-0.2879,-0.2864,-0.2862,-0.2681,-0.2627,-0.2752,-0.2812,-0.2812,-0.2811,-0.2811,-0.2811,0,-0.1953,-0.2088,-0.2162,-0.2207,-0.2355,-0.2423,-0.2502,-0.262,-0.2679,-0.2788,-0.2838,-0.2895,-0.2929,-0.2918,-0.2905,-0.2909,-0.2892,-0.2881,-0.2696,-0.2684,-0.283,-0.2825,-0.2871,-0.2871,-0.2872,-0.2872,-0.2872,0,-0.1916,-0.198,-0.2142,-0.2179,-0.227,-0.2391,-0.2491,-0.2575,-0.2694,-0.2746,-0.2851,-0.288,-0.2941,-0.2942,-0.2914,-0.2799,-0.2892,-0.2697,-0.266,-0.2852,-0.2851,-0.283,-0.2826,-0.287,-0.2871,-0.2871,-0.2871,0,-0.1814,-0.1924,-0.2013,-0.2181,-0.2235,-0.2297,-0.2469,-0.2529,-0.2661,-0.273,-0.2765,-0.2878,-0.2872,-0.2897,-0.2876,-0.2785,-0.2707,-0.2643,-0.2847,-0.2824,-0.2503,-0.2502,-0.2426,-0.2419,-0.2414,-0.2409,-0.2405,0,-0.1765,-0.1803,-0.1979,-0.2036,-0.212,-0.224,-0.2314,-0.2478,-0.2532,-0.2692,-0.2695,-0.2765,-0.281,-0.2639,-0.2685,-0.2601,-0.2571,-0.2517,-0.2511,-0.2483,-0.2456,-0.2464,-0.247,-0.2397,-0.2395,-0.2394,-0.2392,0,-0.1661,-0.1742,-0.1817,-0.1918,-0.2016,-0.2101,-0.2218,-0.2244,-0.2411,-0.2565,-0.2556,-0.2545,-0.2538,-0.2511,-0.2465,-0.2406,-0.2544,-0.2458,-0.247,-0.2464,-0.2446,-0.2427,-0.2439,-0.2373,-0.2376,-0.2377,-0.2379,0,-0.1581,-0.1604,-0.1705,-0.1778,-0.1887,-0.1915,-0.201,-0.2077,-0.2145,-0.2338,-0.2322,-0.2402,-0.251,-0.2407,-0.2359,-0.2292,-0.2257,-0.2179,-0.2205,-0.2227,-0.2172,-0.2121,-0.1905,0,0,0,0,0,-0.1485,-0.1492,-0.1554,-0.1625,-0.1724,-0.1767,-0.1918,-0.202,-0.2193,-0.2128,-0.2221,-0.2204,-0.2156,-0.2195,-0.2079,-0.2248,-0.2254,-0.2103,-0.2176,-0.2266,-0.2288,-0.2241,0,0,0,0,0,0,-0.1424,-0.1473,-0.1491,-0.1464,-0.1479,-0.1552,-0.1633,-0.1761,-0.1744,-0.1934,-0.1918,-0.2056,-0.2036,-0.2176,-0.2026,-0.2034,-0.2032,-0.2163,-0.2156,-0.2253,-0.2274,-0.2292,-0.2251,0,0,0,0,0]},{"header":{"parameterUnit":"m.s-1","parameterCategory":2,"la1":30.2991,"la2":30.254,"lo1":-89.0895,"lo2":-89.0444,"dy":0.0017,"dx":0.0017,"nx":28,"ny":28,"refTime":"2024-05-12T03:00:00:Z","depth":"4","parameterNumber":3,"parameterNumberName":"V-component_of_CURRENTS"},"data":[0,0,0,0,0,0,0,0,0,0,0,0,0,0,0,0,0,0,0,0,0,0,0,0,0,0,0,0,0,0,0,0,0,0,0,0,0,0,0,0,0,0,0,0,0,0,0,0,0,0,0,0,0,0,0,0,0,0,-0.0217,-0.0216,0,-0.0148,-0.0147,-0.0146,-0.0086,-0.0086,-0.0085,-0.0085,0.0061,0.0064,0.0067,0,0,0,0,0,0,0,0,0,0,0,0,0,-0.0241,-0.0242,-0.0217,-0.0216,-0.0215,-0.0148,-0.0147,-0.0145,-0.0086,-0.0086,-0.0085,-0.0084,0.006,0.0064,0.0068,0,0,0,0,0,0,0,0,0,0,0,0,0,-0.0206,-0.0242,-0.0217,-0.0179,-0.0175,-0.0148,-0.0147,-0.0145,-0.0086,-0.0086,-0.0085,-0.0084,0.0058,0.0063,0.0068,0.0084,0,0,0.0084,0.0086,0,0,0,0,0,0,0,0,-0.0208,-0.0205,-0.0185,-0.0181,-0.0177,-0.0126,-0.0102,-0.0065,-0.0087,-0.0118,-0.0085,-0.0084,0.0004,0.0013,0.0026,0.009,0.0097,0.0084,0.0087,0.0089,0.0091,0,0,0,0,0,0,0,-0.0211,-0.0207,-0.0188,-0.0185,-0.0179,-0.0146,-0.014,-0.0095,-0.006,-0.0116,-0.0111,-0.0106,0.0007,0.0021,0.003,0.0099,0.0084,0.0088,0.0092,0.0094,0.021,0.021,0,0,0,0,0,0,-0.0226,-0.021,-0.019,-0.0186,-0.0193,-0.0146,-0.014,-0.0142,-0.0062,-0.005,-0.0107,-0.0104,0.0011,0.0024,0.0035,0.007,0.0089,0.0094,0.0097,0.021,0.021,0.021,0,0,0,0,0,0,-0.0227,-0.0226,-0.0193,-0.0197,-0.0191,-0.0147,-0.015,-0.0141,-0.0129,-0.0057,-0.0043,-0.0104,0.0013,0.0028,0.0076,0.0076,0.0096,0.0101,0.021,0.021,0.021,0.0133,0,0,0,0,0,0,-0.0228,-0.0227,-0.0236,-0.0199,-0.0191,-0.0185,-0.015,-0.014,-0.0127,-0.0123,-0.0049,-0.0035,0.0014,0.0068,0.0081,0.0083,0.0105,0.021,0.021,0.021,0.0135,0.013,0.0126,0,0,0,0,0,-0.023,-0.0247,-0.0237,-0.0234,-0.0205,-0.0186,-0.0179,-0.0144,-0.0128,-0.0129,-0.0075,-0.0037,0.0078,0.0072,0.0088,0.0091,0.021,0.021,0.021,0.0137,0.0131,0.0126,0,0,0,0,0,0,-0.0262,-0.0242,-0.023,-0.024,-0.0219,-0.0176,-0.0177,-0.0153,-0.0113,-0.0108,-0.0037,-0.0019,0.0021,0.0067,0.0058,0.0125,0.015,0.0153,0.009,0.0085,0.008,0.0066,0.0109,0,0,0,0,0,-0.0276,-0.0285,-0.0255,-0.0264,-0.0258,-0.022,-0.0209,-0.0188,-0.0147,-0.013,-0.0077,-0.0019,0.0033,0.0066,0.0113,0.0151,0.0197,0.0164,0.0159,0.0155,0.0154,0.0225,0.0227,0.021,0.021,0.021,0,0,-0.0291,-0.0282,-0.0286,-0.0272,-0.0254,-0.0253,-0.0211,-0.0205,-0.0196,-0.0119,-0.0092,-0.0038,0.0037,0.0078,0.0101,0.0118,0.0181,0.0155,0.015,0.0153,0.0226,0.0227,0.0229,0.0211,0.0211,0.0211,0,0,-0.033,-0.032,-0.0341,-0.0327,-0.031,-0.0285,-0.0287,-0.0251,-0.0227,-0.0197,-0.0136,-0.0081,-0.0011,0.0051,0.009,0.009,0.0148,0.0101,0.0075,0.0143,0.0145,0.0147,0.0194,0.0201,0.0106,0.0105,0.0105,0,-0.0351,-0.0373,-0.0343,-0.0357,-0.0351,-0.0305,-0.032,-0.029,-0.024,-0.0217,-0.02,-0.0081,-0.0021,0.005,0.0051,0.008,0.0118,0.0087,0.0136,0.014,0.0143,0.0191,0.02,0.0102,0.0102,0.0103,0.0103,0,-0.04,-0.0417,-0.0428,-0.043,-0.0417,-0.0425,-0.0381,-0.0363,-0.033,-0.0289,-0.0225,-0.0138,-0.0063,-0.0035,0.0009,0.0067,0.0085,0.0114,0.0146,0.014,0.0191,0.0201,0.0096,0.0098,0.0099,0.01,0,0,-0.0446,-0.0463,-0.0468,-0.0485,-0.0458,-0.0458,-0.0439,-0.0406,-0.0392,-0.0327,-0.0293,-0.0193,-0.0141,-0.0092,-0.0022,0.0044,0.01,0.0082,0.0088,0.0119,0.0234,0.0211,0.0221,0.0135,0.0137,0.0138,0.0253,0,-0.0496,-0.0545,-0.0533,-0.0572,-0.0588,-0.0542,-0.0528,-0.0485,-0.0435,-0.0388,-0.0281,-0.0225,-0.0162,-0.0127,-0.0051,0.0066,0.0126,0.0065,0.0244,0.0249,0.0222,0.0232,0.0144,0.0262,0.0264,0.0266,0.0267,0,-0.0545,-0.0571,-0.0624,-0.0642,-0.0646,-0.066,-0.0628,-0.0609,-0.0519,-0.0476,-0.0389,-0.0306,-0.019,-0.0147,0.0051,0.0007,0.0107,0.0196,0.0203,0.0217,0.0246,0.0276,0.0287,0.0286,0.0284,0.0283,0.0282,0,-0.0589,-0.0635,-0.0685,-0.069,-0.0697,-0.0712,-0.0707,-0.0638,-0.0621,-0.0529,-0.0501,-0.0352,-0.0277,-0.0124,0.0062,0.0057,0.0272,0.0292,0.0365,0.0365,0.0385,0.0382,0.0419,0.0419,0.0418,0.0418,0.0418,0,-0.0638,-0.068,-0.072,-0.0748,-0.0803,-0.0774,-0.0799,-0.0768,-0.0708,-0.068,-0.0554,-0.0494,-0.0268,-0.0114,0.0046,0.0239,0.0266,0.0361,0.0397,0.0347,0.0339,0.0392,0.0387,0.0422,0.0421,0.0421,0.042,0,-0.0674,-0.0701,-0.077,-0.0811,-0.0833,-0.0868,-0.0887,-0.0889,-0.0825,-0.0784,-0.0759,-0.059,-0.0388,-0.0163,0.0097,0.021,0.0401,0.0459,0.0377,0.0407,0.0447,0.0437,0.0545,0.0546,0.0546,0.0546,0.0546,0,-0.0696,-0.0735,-0.0829,-0.0882,-0.0916,-0.0962,-0.0988,-0.0955,-0.0944,-0.0835,-0.0815,-0.0628,-0.0489,-0.0141,0.0085,0.0386,0.0425,0.0506,0.0486,0.0438,0.0463,0.0453,0.0443,0.0547,0.0547,0.0547,0.0547,0,-0.0734,-0.0777,-0.0834,-0.0944,-0.1013,-0.1068,-0.1099,-0.1102,-0.1033,-0.0986,-0.0842,-0.0648,-0.0424,-0.015,0.0085,0.0299,0.0446,0.0509,0.051,0.0491,0.0441,0.0463,0.0453,0.0547,0.0547,0.0547,0.0547,0,-0.0762,-0.0816,-0.0902,-0.0992,-0.1082,-0.114,-0.1154,-0.1122,-0.1097,-0.0964,-0.0917,-0.066,-0.0501,-0.0195,0.0024,0.0232,0.0276,0.0324,0.0335,0.0337,0.0241,0.0144,0.0192,0,0,0,0,0,-0.0776,-0.0842,-0.0939,-0.1039,-0.1125,-0.1172,-0.1207,-0.1196,-0.1135,-0.1043,-0.0972,-0.0753,-0.0412,-0.0266,-0.0061,0.0009,0.0294,0.025,0.035,0.0551,0.055,0.0471,0,0,0,0,0,0,-0.0791,-0.0886,-0.0938,-0.1047,-0.1118,-0.12,-0.1226,-0.1192,-0.1125,-0.1037,-0.0854,-0.0728,-0.0398,-0.0522,-0.0062,0.0001,0.0084,0.0422,0.0425,0.0552,0.0551,0.055,0.0468,0,0,0,0,0]}]]